Other Surface Observations
Issued by NWS Tucson, AZ

Home | Current Version | Previous Version | Text Only | Print | Product List | Glossary On
Versions: 1 2 3 4 5 6 7 8 9 10 11 12 13 14 15 16 17 18 19 20 21 22 23 24 25 26 27 28 29 30 31 32 33 34 35 36 37 38 39 40 41 42 43 44 45 46 47 48 49 50
503
SXUS55 KTWC 060215
OSOTWC

WEATHER ROUNDUP FOR SOUTHEAST ARIZONA
NATIONAL WEATHER SERVICE TUCSON AZ
715 PM MST MON DEC 05 2016

AZZ504>506-514-060315-
LOCATION       SKY/WX    TMP DP  RH WIND       PRES   REMARKS
TUCSON         MOCLDY    62  19  19 W3        29.94R
DAVIS-MONTHAN  MOCLDY    58  20  22 NW8       29.92R
CHILDRENS PARK N/A      N/A N/A  18 NW4               PIMA CO DEQ
ALVERNON/22ND  N/A       65 N/A N/A NW3               PIMA CO DEQ
CHERRY/GLENN   N/A       64 N/A N/A NW3               PIMA CO DEQ
TANGERINE      N/A       63 N/A N/A N4                PIMA CO DEQ
CONTL RANCH    N/A       64  17  16 NW5               PIMA CO DEQ
GRANT/1ST      N/A       65  18  16 NW4               PIMA CO DEQ
CRAYCROFT/22ND N/A       65  19  17 N/A               PIMA CO DEQ
GOLFLINKS/KOLB N/A       65  19  17 NW4               PIMA CO DEQ
AJO/12TH       N/A       65  19  17 W4                PIMA CO DEQ
FAIRGROUNDS    N/A       61 N/A N/A NW5               PIMA CO DEQ
SAGUARO        N/A       64  17  16 NW5G10            *SABINO CYN
SAN CARLOS     N/A       56  21  25 NW3               *SAN CARLOS
GREEN VALLEY   N/A       62  19  19 SW7               PIMA CO DEQ
HORSE CAMP CYN N/A       52  12  20 NW7G12            *ARAVAIPA CYN
RINCON MTNS    NOT AVBL
$$

AZZ509>511-060315-
LOCATION       SKY/WX    TMP DP  RH WIND       PRES   REMARKS
SAFFORD        PTCLDY    56  14  19 N9        29.90R
STRAY HORSE    N/A       37  14  39 N/A               *
TRAIL CABIN    N/A       43  11  27 W5G10             *N OF GRANVILLE
BLACK HILLS    NOT AVBL
DRY LAKE       N/A       35  12  38 W6                *NATANES MTNS
NOON CREEK     N/A       45  22  39 SW4               *PINALENO MTNS
COLUMBINE      N/A       31  13  47 SW6G12            *PINALENO MTNS
GUTHRIE        N/A       45  13  27 W11G27            *SW OF GUTHRIE
$$

AZZ502-503-513-060315-
LOCATION       SKY/WX    TMP DP  RH WIND       PRES   REMARKS
NOGALES        MOCLDY    53  28  38 S3        29.97R
SELLS          N/A       60  16  18 N3                *
SASABE         N/A       51  21  30 SW4               *ALTAR VLY
HOPKINS        N/A       41  20  43 W7G13             *SANTA RITA MTNS
CARR CYN       N/A       45  28  51 SW2               *W OF HEREFORD
$$

AZZ507-508-512-060315-
LOCATION       SKY/WX    TMP DP  RH WIND       PRES   REMARKS
SIERRA VISTA   MOCLDY    53  25  33 W10       29.98R
DOUGLAS        PTCLDY    53  28  38 W5        29.97R
EMPIRE MTNS    NOT AVBL
MULESHOE RANCH N/A       53  14  21 N3G10             *PRESERVE
HEADQUARTERS   NOT AVBL
$$

.............................NOTES.............................
THIS IS AN AUTOMATED COLLECTIVE WITH MINIMAL QUALITY CONTROL.
PIMA CO DEQ SITES HAVE NONSTANDARD WIND SENSOR HEIGHTS.
PIMA CO DEQ SITES DO NOT REPORT WIND GUSTS.
* INDICATES WIND SENSORS LOCATED AT 20 FEET INSTEAD OF 33 FEET.
..............................KEY..............................
SKY/WX - SKY CONDITION/WEATHER
TMP    - TEMPERATURE IN FAHRENHEIT
DP     - DEWPOINT IN FAHRENHEIT
RH     - RELATIVE HUMIDITY IN PERCENT
WIND   - DIRECTION AND SPEED IN MILES PER HOUR (MPH)
VRB    - VARIABLE WIND DIRECTION
PRES   - MEAN SEA LEVEL PRESSURE IN INCHES OF MERCURY
         F - FALLING PRESSURE   R - RISING PRESSURE
         S - STEADY PRESSURE
VSB    - VISIBILITY IN MILES
HX     - HEAT INDEX IN FAHRENHEIT
WCI    - WIND CHILL INDEX IN FAHRENHEIT
N/A    - NOT AVAILABLE
AFB    - AIR FORCE BASE
         DAVIS-MONTHAN IS DAVIS-MONTHAN AIR FORCE BASE
CYN    - CANYON
MTNS   - MOUNTAINS
NCA    - NATIONAL CONSERVATION AREA
NR     - NEAR
VLY    - VALLEY
CONTL  - CONTINENTAL
PIMA CO DEQ - PIMA COUNTY DEPT OF ENVIRONMENTAL QUALITY



USA.gov is the U.S. government's official web portal to all federal, state and local government web resources and services.